OCEANSAT-2 (35931 NORAD) Tracking and Keplerian Element Data

This shows tracking and keplerian element data for the satellite.

Feedback or suggestion? Click here.




ElementValue
Catalog35931
NameOCEANSAT-2
Epoch Orbit80966
Epoch Day35.14011838
Epoch Year2025
RAAN67.1416
Inclination98.2368
Eccentricity0.0016309
Argument of Perigee196.5465
Mean Anonmoly163.5172
Mean Motion13.99551586
Decay Rate1.58E-06
L11 35931U 09051A 25035.14011838 .00000158 00000+0 13369-3 0 9995
L22 35931 98.2368 67.1416 0016309 196.5465 163.5172 13.99551586809665



Live tracking and technical data element details for OCEANSAT-2 (NORAD 35931). OCEANSAT-2 can be tracked NOW for your location showing map with azimuth and elevation plus other details from your city location.







IsCatalogInMostPopularTable: catalog: 35931, numindb: 301
Update: records affected: 1



GetName: 35931 OCEANSAT-2

Hit Count: updated at: Fri, 16 May 2025 11:19:38 GMT